Regional Weather Roundup
Issued by NWS

Home | Current Version | Previous Version | Graphics & Text | Print | Product List | Glossary Off
Versions: 1 2 3 4 5 6 7 8 9 10 11 12 13 14 15 16 17 18 19 20 21 22 23 24 25 26 27 28 29 30 31 32 33 34 35 36 37 38 39 40 41 42 43 44 45 46 47 48 49 50

000
ASUS43 KDMX 172207
RWRIA

WEATHER ROUNDUP FOR IOWA
NATIONAL WEATHER SERVICE DES MOINES IA
500 PM CDT WED SEP 17 2014

NOTE: "FAIR" INDICATES FEW OR NO CLOUDS BELOW 12,000 FEET WITH NO
SIGNIFICANT WEATHER AND/OR OBSTRUCTIONS TO VISIBILITY.

* - THESE STATIONS ARE NOT NWS STATIONS...THUS NOT UNDER NWS
QUALITY CONTROL.  THEY ALSO DO NOT REPORT WEATHER SUCH
AS PRECIPITATION OR FOG.

IAZ001>003-012>014-020>022-031>034-043>046-172300-
   NORTHWEST IOWA

CITY           SKY/WX    TMP DP  RH WIND       PRES   REMARKS
CARROLL *      PTSUNNY   77  55  47 SE5       29.92S
CHEROKEE *     MOSUNNY   77  55  47 E7        29.91S
DENISON *      SUNNY     77  59  53 E6        29.89S
LE MARS *      SUNNY     79  59  50 CALM      29.90F HX  80
ORANGE CITY *  CLOUDY    79  55  44 SE6       29.91S
SHELDON *      SUNNY     73  59  60 SE3       29.91S
SIOUX CITY     SUNNY     82  52  35 NE3       29.89S HX  81
SPENCER        MOSUNNY   75  56  51 E9        29.93S
STORM LAKE *   SUNNY     73  57  56 E3        29.93S
$$

IAZ055>058-069>071-079>083-090>094-172300-
   SOUTHWEST IOWA

CITY           SKY/WX    TMP DP  RH WIND       PRES   REMARKS
ATLANTIC *     SUNNY     75  59  57 E5        29.90S
AUDUBON *      SUNNY     75  54  46 NE3       29.93S
CLARINDA *     PTSUNNY   79  63  57 E7        29.91S HX  80
COUNCIL BLFS * SUNNY     79  63  57 CALM      29.89S HX  80
CRESTON *      MOSUNNY   75  59  57 E7        29.92S
HARLAN  *      PTSUNNY   77  57  50 CALM      29.94S
LAMONI         MOSUNNY   74  58  57 VRB3      29.91F
SHENANDOAH *   SUNNY     79  63  57 E7        29.90S HX  80
$$

IAZ047>049-059>061-072>074-084-172300-
   CENTRAL IOWA

CITY           SKY/WX    TMP DP  RH WIND       PRES   REMARKS
AMES           SUNNY     74  56  53 NE9       29.93S
ANKENY *       SUNNY     73  55  53 CALM      29.92S
CHARITON *     MOSUNNY   73  59  60 SE8       29.93R
DES MOINES     MOSUNNY   75  57  53 VRB5      29.92S
GRINNELL*      MOSUNNY   72  54  53 CALM      29.94S
KNOXVILLE *    SUNNY     73  55  53 SE7       29.91F
MARSHALLTOWN   CLOUDY    72  54  53 VRB7      29.93F
PELLA *        MOSUNNY   73  57  56 SE6       29.94S
PERRY *          N/A     75  55  50 E6        29.92S
$$

IAZ004>006-015-016-023>025-035-036-172300-
   NORTH CENTRAL IOWA

CITY           SKY/WX    TMP DP  RH WIND       PRES   REMARKS
ALGONA *       MOSUNNY   75  54  46 CALM      29.93S
CLARION *        N/A     75  50  41 VRB3      29.94R
ESTHERVILLE    SUNNY     73  55  53 CALM      29.93S
FORT DODGE *   PTSUNNY   73  54  49 S3        29.94R
MASON CITY     SUNNY     73  51  46 SE6       29.95F
FOREST CITY *  MOSUNNY   72  54  53 S3        29.94S
IOWA FALLS *     N/A     73  48  40 E3        29.95S
$$

IAZ007>011-017>019-026>030-037>042-050>054-066-172300-
   NORTHEAST IOWA

CITY           SKY/WX    TMP DP  RH WIND       PRES   REMARKS
CEDAR RAPIDS   SUNNY     69  55  60 VRB5      29.94F
CHARLES CITY * SUNNY     72  50  46 E3        29.96S
CLINTON *      SUNNY     70  52  52 SW3       29.99S
DECORAH *      PTSUNNY   70  52  52 CALM      29.96R
DUBUQUE        SUNNY     68  52  56 W5        29.97F
MONTICELLO *   SUNNY     72  50  46 CALM      29.95F
OELWEIN *      SUNNY     72  48  43 SW5       29.96S
WATERLOO       SUNNY     72  49  44 CALM      29.94S
$$

IAZ064-065-067-068-078-172300-
   EAST CENTRAL IOWA

CITY           SKY/WX    TMP DP  RH WIND       PRES   REMARKS
DAVENPORT      SUNNY     69  48  47 CALM      29.96F
IOWA CITY      PTSUNNY   70  56  61 E6        29.95F
MT. PLEASANT * MOSUNNY   73  52  46 E6        29.95S
MUSCATINE *    MOSUNNY   70  52  52 CALM      29.95F
QUAD CITIES    SUNNY     70  50  49 CALM      29.95F
$$

IAZ062-063-075>077-085>089-095>099-172300-
   SOUTHEAST IOWA

CITY           SKY/WX    TMP DP  RH WIND       PRES   REMARKS
BURLINGTON     LGT RAIN  69  55  60 CALM      29.95F
FAIRFIELD *    PTSUNNY   70  55  60 SE6       29.94F
FORT MADISON * SUNNY     72  54  53 CALM      29.95F
KEOKUK *       CLOUDY    68  55  64 E3        29.94S
OSKALOOSA *    CLOUDY    70  57  64 E5        29.93F
CENTERVILLE *  SUNNY     72  63  73 E6        29.94S
OTTUMWA        SUNNY     71  57  61 SE8       29.93F
WASHINGTON *   SUNNY     72  55  56 VRB3      29.94F
$$

ABBREVIATIONS USED IN REMARKS
   TC - TEMPERATURES IN CELSIUS
  WCI - WIND CHILL INDEX
   HX - HEAT INDEX
  VSB - VISIBILITY
$$




USA.gov is the U.S. government's official web portal to all federal, state and local government web resources and services.